Temp
27 26 24 24 22 24 24 30 29 30 32 33 34 32 31 29 31 25 27 26 25 24 23 23 22 22 22 22 22 21 21 22 22 21 21 21 21 21 21 21 21 21 21 21 21 21 21 21 21
26 26 25 23 23 23 27 32 31 32 34 33 33 32 30 29 30 27 26 25 25 24 23 22 23 22 21 21 22 22 21 22 22 21 21 21 21 21 21 21 21 21 21 21 21 21 21 21 21
27 27 21 22 24 26 29 33 32 34 35 34 33 33 32 29 30 28 26 25 24 23 23 23 22 22 21 22 22 21 21 21 21 21 21 21 21 21 21 21 21 21 21 21 21 21 21 21 21
26 21 20 23 27 29 33 33 34 35 35 35 33 31 31 32 31 28 27 26 25 24 24 23 22 22 21 21 21 21 21 21 22 21 21 21 21 21 21 21 21 21 21 21 21 21 21 21 21
26 23 23 25 27 33 34 35 35 34 35 33 32 30 30 31 30 29 27 27 25 24 24 23 22 22 22 21 21 21 21 21 22 21 21 21 21 21 21 21 21 21 21 21 21 21 21 21 21
22 22 24 24 30 35 36 35 35 35 34 32 31 30 29 31 31 30 29 26 25 25 24 23 22 22 22 21 21 21 21 21 21 21 21 21 21 21 21 21 21 21 21 21 21 21 21 21 22
23 23 26 27 30 31 35 35 34 34 35 32 32 29 28 30 32 31 27 26 26 24 23 22 22 22 22 21 21 21 21 21 21 22 22 21 21 21 22 21 21 21 21 21 21 22 22 21 22
23 25 26 28 29 31 33 34 30 29 31 34 32 29 28 30 32 32 27 26 24 24 24 23 23 22 22 21 21 21 21 21 21 22 22 22 22 22 22 22 22 21 21 21 22 22 22 22 22
23 25 28 31 29 32 33 30 29 27 29 28 27 30 30 32 32 32 29 27 25 24 25 24 24 24 23 22 22 21 22 22 21 22 22 22 22 22 23 23 23 23 23 23 22 22 23 23 23
27 27 32 33 32 34 35 29 29 27 30 30 29 31 32 32 32 31 31 28 27 25 25 24 24 24 23 23 22 22 23 23 23 23 23 23 23 23 23 23 23 24 24 24 24 23 23 23 23
29 29 33 37 37 37 33 30 29 26 24 26 31 31 31 32 31 32 31 30 28 27 25 25 24 24 23 23 24 23 24 24 23 23 24 24 23 23 23 23 24 24 24 24 24 23 23 23 23
27 33 35 38 38 38 36 32 30 31 28 29 29 32 32 31 31 32 31 31 30 27 27 26 26 25 24 24 24 24 24 24 24 24 25 24 24 24 24 24 25 25 24 24 23 23 23 23 24
28 32 36 34 38 38 38 35 33 34 32 31 30 32 31 30 31 32 32 32 30 28 27 27 27 25 25 25 25 25 24 25 25 25 25 25 25 25 25 25 25 25 24 24 24 24 24 24 24
31 32 33 35 35 37 37 37 35 34 34 33 33 31 31 31 32 32 32 31 30 30 28 28 27 26 26 26 26 26 25 25 25 26 26 26 26 26 26 25 25 25 25 25 25 24 24 24 25
29 31 31 33 34 36 38 35 34 34 34 33 32 32 32 32 32 32 32 32 30 30 29 28 28 28 27 27 27 27 27 26 26 27 27 26 26 26 26 26 26 26 25 26 25 25 25 25 25
31 32 28 34 36 32 32 29 30 32 34 32 32 32 32 32 32 33 33 32 31 30 29 28 28 28 27 27 27 27 27 28 28 27 27 27 26 26 27 25 25 26 25 25 26 26 26 26 26
30 30 31 33 36 32 31 30 32 30 33 32 32 32 32 31 31 33 33 32 30 30 30 28 28 28 27 27 27 27 28 28 28 27 27 27 26 26 26 26 25 25 26 25 26 26 26 26 25
28 30 32 32 34 35 29 30 28 31 33 33 32 32 31 30 31 32 33 33 31 30 30 29 28 27 27 27 27 27 28 27 27 27 27 27 27 26 26 26 26 26 26 25 26 26 26 26 26
30 32 32 37 38 38 36 27 25 28 30 32 32 32 30 31 31 32 33 33 32 29 29 30 28 28 27 27 27 27 27 27 28 28 27 27 26 26 26 26 26 26 26 26 26 26 26 27 27
33 34 32 37 37 37 36 31 30 31 29 28 33 32 32 32 31 31 32 32 31 29 29 29 29 28 27 27 27 27 27 28 28 28 28 27 27 27 26 26 26 26 26 26 26 26 26 27 27
33 33 34 36 37 38 34 33 32 30 30 31 34 34 33 33 32 31 32 32 31 29 29 29 29 28 28 27 27 27 27 28 28 28 28 27 27 26 26 26 26 26 26 26 26 26 26 26 27
32 37 38 38 35 33 35 31 31 32 31 32 31 31 33 33 33 32 31 32 31 28 29 29 29 28 28 27 27 27 27 28 28 28 28 27 27 27 27 27 26 26 26 26 26 26 26 26 26
36 38 36 37 35 34 36 27 28 32 32 32 34 32 31 34 34 33 32 32 32 28 28 29 29 28 27 28 27 27 28 28 29 28 28 28 27 27 27 27 26 26 27 26 26 26 26 26 26
38 37 37 35 34 31 32 30 28 30 33 31 34 33 33 34 34 33 33 33 32 30 28 27 28 28 28 28 28 27 28 28 29 29 29 27 27 27 28 27 27 27 27 27 26 27 26 26 26
36 34 30 30 30 30 31 31 30 33 35 34 33 33 33 34 35 34 33 33 33 30 29 27 27 26 27 28 28 27 27 28 28 28 28 29 28 27 27 27 27 27 27 27 26 26 26 26 26
34 33 29 31 31 31 36 33 34 36 37 34 36 34 33 35 36 35 34 34 34 31 30 28 26 26 26 27 27 28 27 27 28 28 28 28 29 28 28 28 28 27 27 27 27 26 26 27 26
34 33 34 33 33 31 32 34 34 36 37 37 38 38 36 37 36 35 35 35 34 32 31 29 27 27 26 26 26 27 28 27 27 28 28 28 29 29 29 29 28 27 27 27 27 26 26 26 27
36 37 32 29 32 31 32 32 31 32 33 34 34 37 38 38 37 36 35 35 34 33 32 31 27 27 27 26 26 26 27 27 27 27 28 28 29 29 29 29 28 28 27 27 27 27 27 26 27
34 33 34 31 30 30 30 30 30 34 33 33 34 34 34 34 37 36 36 35 35 34 33 31 28 28 27 27 27 26 26 27 27 27 28 28 29 29 29 28 28 27 27 27 27 27 27 26 26
35 33 32 29 30 30 30 30 35 32 33 34 33 34 29 29 33 34 36 35 34 35 33 32 29 28 28 28 27 27 27 26 26 26 27 28 28 29 29 28 28 27 27 27 27 27 26 26 26
Height
761 763 762 762 791 792 805 770 755 759 753 735 732 740 754 756 759 796 768 776 782 788 794 797 799 802 804 807 808 811 812 814 815 816 818 818 819 820 821 822 824 824 825 825 826 827 829 830 832
761 764 763 771 805 815 792 754 758 747 736 734 736 742 755 770 752 763 772 776 781 788 793 797 800 803 805 807 808 811 813 815 816 817 818 819 820 821 822 824 826 826 826 826 827 828 829 830 831
758 764 780 792 802 799 783 751 747 737 731 735 744 739 749 765 759 763 774 777 783 790 793 797 800 803 806 807 808 812 814 815 816 817 819 820 821 822 823 825 826 827 827 827 828 829 830 831 833
756 770 788 804 793 769 750 743 736 735 733 730 740 758 753 755 757 764 774 779 785 791 794 797 800 803 806 807 810 813 815 815 816 817 819 821 821 823 824 826 826 827 827 828 829 830 831 832 834
756 770 797 802 785 748 733 728 728 737 735 744 744 767 765 759 764 769 774 779 785 790 795 798 801 803 806 808 811 813 815 816 817 819 820 821 823 824 825 827 827 828 828 829 831 831 832 832 833
770 778 798 798 767 737 727 725 730 731 737 745 752 761 770 764 766 771 773 779 783 788 794 798 801 804 806 809 811 814 816 816 818 819 821 822 824 825 826 828 829 830 830 830 831 831 832 833 833
769 781 787 779 768 754 734 719 733 736 737 748 744 768 768 766 768 771 774 778 784 789 793 797 801 804 806 809 812 814 816 817 819 820 822 823 824 825 827 828 830 830 831 830 830 831 832 833 833
762 766 778 771 770 757 733 727 740 748 757 741 744 768 772 762 767 771 776 780 784 788 792 795 800 803 806 809 811 814 816 818 819 820 822 823 824 825 827 828 830 830 830 829 829 830 831 831 833
769 778 775 760 765 750 731 747 753 753 755 751 750 748 754 758 764 770 776 782 786 789 791 794 797 801 805 808 811 813 815 817 819 821 822 823 825 825 827 828 829 829 829 828 829 829 830 831 832
761 770 753 736 733 732 727 742 757 763 745 749 748 746 753 758 762 768 771 780 783 786 790 793 796 800 803 807 809 812 814 817 819 821 822 823 824 825 827 828 828 829 829 829 829 830 830 831 831
758 764 731 721 716 714 731 743 744 759 767 754 749 749 752 757 761 764 769 775 777 782 788 791 794 798 802 805 808 811 814 816 819 821 822 823 824 826 827 828 828 828 829 830 833 832 831 831 829
780 742 728 713 709 712 721 732 746 737 741 739 745 744 750 755 758 761 766 771 776 780 785 790 793 796 800 804 807 810 813 815 817 819 821 823 824 826 827 827 828 828 829 831 830 830 829 827 825
763 741 721 719 708 708 706 721 727 729 727 734 743 743 749 754 756 759 763 768 773 778 783 788 791 794 798 802 805 809 811 813 815 817 819 821 823 825 827 828 827 827 828 829 829 828 828 825 821
749 743 729 719 717 707 714 716 719 725 722 732 738 744 748 751 753 756 759 764 770 774 780 784 790 794 797 801 804 807 810 812 814 817 819 822 824 825 827 827 828 827 828 827 827 827 826 823 820
746 745 730 721 719 717 703 730 735 719 722 733 740 744 746 748 750 752 755 760 767 771 775 781 787 791 796 800 803 805 808 810 813 816 819 821 822 824 825 827 829 830 829 827 827 825 825 825 819
756 747 770 725 715 722 721 765 739 725 725 735 739 742 743 745 746 748 752 757 762 769 774 779 784 788 793 797 801 804 806 808 810 813 816 818 820 822 825 828 827 825 828 829 827 826 826 824 822
768 785 767 746 710 723 731 752 727 729 727 734 737 740 740 741 743 745 749 753 759 765 771 776 781 786 792 797 800 802 804 807 809 811 814 817 818 820 824 827 825 824 827 829 827 826 827 827 824
800 786 767 761 736 721 743 743 744 735 732 732 735 735 739 740 740 742 747 752 758 762 768 773 777 784 791 796 800 802 804 807 808 811 814 815 818 820 823 827 828 827 829 828 826 826 827 826 824
777 766 767 724 699 714 716 751 756 747 747 740 735 734 736 737 737 740 744 750 756 761 765 771 776 782 788 793 798 800 803 805 807 809 813 815 817 819 821 823 825 826 826 826 825 826 828 825 824
752 755 752 717 703 711 717 744 737 733 732 738 731 729 729 732 735 738 741 746 752 758 763 769 774 779 785 790 795 799 801 803 805 808 809 813 815 817 819 821 823 823 824 824 824 824 825 824 825
740 754 743 729 707 697 721 739 734 737 728 728 712 716 717 722 730 734 738 742 749 754 760 766 772 777 783 788 793 796 799 801 803 806 808 812 814 816 817 818 820 822 822 821 822 823 822 822 824
752 714 712 713 731 759 709 774 745 734 731 720 718 718 717 715 718 725 732 738 744 751 757 762 769 775 781 785 789 792 795 798 800 802 805 808 811 813 815 816 818 819 820 819 820 821 820 820 820
729 699 711 712 730 736 726 779 762 727 725 720 699 705 710 708 707 716 722 729 738 745 752 758 764 770 776 782 786 789 792 795 797 799 800 804 808 810 812 814 816 817 817 818 818 819 818 819 819
696 710 710 718 730 774 745 763 773 749 721 716 687 690 696 699 699 706 713 721 730 738 745 752 758 763 769 777 782 785 788 791 793 795 798 800 804 807 809 810 812 813 814 814 815 816 817 818 817
707 730 777 781 781 783 738 750 742 704 689 694 699 688 685 689 694 700 706 713 720 730 738 745 752 757 763 769 776 781 785 788 790 792 794 795 800 803 804 806 807 808 810 812 813 814 814 814 814
718 727 774 788 784 770 720 750 724 679 675 682 681 680 686 681 684 690 696 704 711 721 730 737 745 751 757 762 768 776 782 784 787 790 792 795 796 798 799 802 804 805 807 808 809 810 811 811 810
712 732 705 739 735 762 743 722 702 681 669 673 671 659 669 668 673 680 688 696 705 713 722 730 738 745 751 756 762 768 774 778 782 786 789 791 793 794 796 797 799 801 804 805 806 806 805 806 808
702 687 739 747 772 780 754 744 739 710 696 685 688 653 651 658 667 672 680 689 698 706 715 723 729 736 743 750 756 761 766 772 778 781 783 787 789 790 792 791 794 799 800 800 799 798 802 804 806
717 728 719 728 746 770 778 757 709 695 687 699 694 673 664 664 662 669 673 681 689 700 709 717 725 732 740 745 751 757 761 766 772 776 779 782 784 786 788 790 793 794 795 792 795 798 801 803 805
703 719 728 763 757 742 747 752 682 688 689 684 693 695 683 683 666 666 665 673 682 690 700 708 716 725 730 738 744 751 756 761 766 770 774 776 780 782 784 787 788 790 789 790 792 794 798 800 801
Wind_Speed
5 5 8 4 6 3 2 5 4 14 6 7 11 13 11 6 3 4 32 32 31 30 26 22 19 17 15 13 15 13 13 12 11 10 9 9 9 9 9 10 9 10 9 9 9 7 8 9 9
3 5 5 3 4 2 4 3 4 6 10 10 14 16 14 6 9 16 24 37 31 31 28 23 20 17 16 14 15 13 11 11 10 10 9 8 9 9 8 8 10 9 8 8 7 7 8 8 10
4 7 4 3 2 4 3 7 5 13 11 7 15 11 6 10 17 8 36 35 30 29 26 24 20 17 16 15 14 12 11 11 10 10 9 10 9 9 11 10 9 8 9 8 7 7 7 7 9
6 6 5 4 15 7 9 8 7 8 8 16 14 11 9 27 8 29 39 34 29 29 25 24 21 17 15 14 13 12 11 11 10 11 11 10 9 10 9 9 10 9 8 7 7 6 6 7 8
2 3 4 2 10 6 7 12 11 8 7 19 19 16 10 17 37 40 42 34 33 32 26 23 20 17 15 14 13 11 11 11 11 11 10 10 9 10 9 8 9 8 7 7 6 6 5 5 5
4 3 2 3 7 2 7 19 8 11 21 21 18 12 7 28 31 33 35 37 38 32 28 23 20 16 15 14 13 11 11 11 11 11 10 10 9 10 10 8 8 7 6 6 5 5 5 5 4
7 5 3 6 5 3 4 9 6 9 9 15 19 15 8 11 28 28 42 40 31 29 27 24 20 16 15 14 13 12 12 12 11 11 11 9 9 9 9 8 7 7 6 5 5 4 5 5 5
2 3 4 6 4 4 2 5 21 17 13 17 18 6 14 14 27 26 40 37 37 28 28 25 21 18 16 15 13 12 12 12 12 11 10 11 9 9 8 8 8 7 6 5 5 6 7 7 6
6 2 4 4 7 5 5 22 9 6 7 3 5 14 20 30 28 27 34 34 33 31 27 24 22 18 17 15 15 13 12 13 12 11 11 11 10 9 8 8 6 6 6 6 6 6 7 7 7
2 3 7 9 7 9 11 22 11 6 2 5 5 18 29 29 25 21 21 30 29 31 28 26 23 21 20 16 17 15 13 15 13 11 11 12 11 8 7 6 9 6 6 6 6 6 5 8 9
3 5 9 1 2 6 15 19 14 13 1 6 20 22 19 17 20 19 20 27 29 32 32 31 25 24 23 21 18 16 15 15 13 11 9 9 12 11 13 10 9 9 7 7 6 7 7 9 10
20 23 19 7 4 6 10 22 12 6 10 16 12 22 18 14 13 18 19 22 28 35 33 32 28 27 27 24 20 17 18 17 16 14 11 11 12 13 14 17 12 9 7 7 4 9 10 13 14
15 12 14 10 4 3 4 12 8 7 15 18 18 19 17 11 10 23 25 28 31 31 34 33 28 30 27 25 21 19 20 20 18 16 16 14 13 14 11 17 15 11 10 4 8 10 12 15 14
17 22 11 8 11 5 8 7 10 15 19 15 20 16 16 13 16 20 24 25 34 32 29 31 27 24 26 25 21 19 24 23 21 17 13 12 13 8 8 10 7 7 5 7 9 11 9 12 15
17 10 10 9 4 5 5 4 4 11 20 18 17 16 17 16 22 17 23 27 34 31 36 37 32 23 22 21 17 12 23 22 26 19 17 11 7 6 6 3 4 5 9 8 8 7 11 13 16
9 8 5 7 2 6 10 9 7 6 18 19 18 17 17 16 15 25 24 34 32 34 31 30 26 25 19 17 19 13 16 20 22 21 19 18 11 9 8 3 7 8 9 12 9 10 12 14 15
5 6 7 12 15 10 4 6 8 8 14 17 18 15 15 14 11 22 22 29 34 37 32 30 25 24 21 18 17 13 11 7 22 25 22 14 14 9 8 8 8 13 5 8 7 9 9 10 8
3 6 8 12 14 6 5 6 20 14 10 16 17 14 11 9 13 24 21 26 30 37 35 33 32 28 26 20 16 17 13 7 18 18 17 13 15 12 9 8 6 5 6 7 3 8 8 11 11
18 17 18 2 16 2 4 31 27 23 13 8 15 14 11 11 12 25 26 28 23 38 36 35 28 32 31 27 21 21 16 12 16 13 16 15 15 13 13 7 8 6 5 5 3 6 8 12 10
11 17 17 7 16 12 7 21 24 14 19 22 14 16 16 14 14 17 24 28 26 34 36 36 29 32 32 30 23 20 17 17 16 15 16 17 13 12 14 11 9 6 8 5 5 5 5 7 6
16 9 19 8 9 8 8 5 9 6 6 4 18 17 20 20 17 18 18 25 25 33 37 35 31 26 33 30 24 22 21 20 20 19 20 20 15 16 11 9 10 4 4 5 10 5 4 5 6
8 13 11 13 9 5 4 2 4 5 9 9 8 5 14 21 19 18 17 22 26 33 38 37 34 27 33 28 26 29 19 13 21 26 23 23 22 21 16 13 11 9 8 6 6 6 9 3 4
11 23 7 7 10 8 4 6 7 7 7 10 10 9 8 21 22 21 22 27 31 36 36 41 39 37 33 32 25 26 20 16 10 16 22 24 26 19 17 16 15 12 12 10 7 8 6 6 5
17 11 6 8 7 5 1 6 5 4 10 8 15 9 11 13 23 23 31 33 33 37 38 39 41 41 38 35 34 22 24 17 17 13 18 27 29 23 18 17 20 15 13 13 9 9 10 7 6
10 11 4 5 4 5 8 7 9 14 11 20 19 17 16 12 23 23 23 23 31 37 37 38 40 38 41 36 39 33 21 24 22 16 9 22 23 25 24 23 20 21 16 14 13 12 11 10 9
11 9 5 5 6 5 4 4 5 9 6 21 20 20 18 14 23 23 25 24 31 38 39 38 39 36 39 41 39 39 33 24 29 25 17 16 20 25 25 25 24 24 19 15 15 14 14 12 14
10 5 12 5 6 4 3 4 8 10 8 7 1 26 25 22 23 23 24 27 32 34 41 39 39 37 38 38 39 39 39 32 25 27 23 20 20 22 19 28 29 26 22 17 15 17 17 14 10
6 6 6 4 0 5 5 6 3 7 12 18 26 14 23 22 22 22 19 21 33 32 40 39 43 40 40 39 36 37 39 38 33 25 26 25 22 20 16 23 34 28 24 22 21 22 19 15 15
15 8 6 3 5 5 3 5 8 14 15 10 18 16 16 11 19 19 18 24 33 32 36 33 39 37 35 35 35 31 33 37 37 33 29 27 26 26 18 20 28 28 27 26 25 23 18 16 8
15 8 8 4 10 3 4 6 8 14 16 18 5 13 10 15 12 14 20 20 28 33 35 36 39 38 38 37 34 34 32 32 35 36 33 30 30 27 25 21 29 29 30 28 26 24 21 19 18
Wind_Direction
288 297 298 28 55 51 229 270 284 140 165 93 94 91 85 29 158 175 150 149 150 151 150 145 140 135 128 127 121 119 122 124 126 120 120 122 121 118 115 114 115 114 118 120 121 115 113 113 110
213 297 8 54 99 155 226 212 107 89 104 100 97 92 91 79 92 111 120 141 148 151 149 145 139 132 129 128 120 119 126 130 130 125 127 123 119 117 118 113 119 117 118 115 120 124 123 126 115
94 46 49 27 358 220 140 155 148 133 126 123 98 103 74 112 122 101 135 136 146 147 151 145 138 134 130 127 124 129 130 129 125 127 132 124 125 121 115 114 124 121 121 127 131 130 130 132 120
157 53 103 336 276 259 116 113 126 147 92 111 105 78 96 142 117 131 138 141 143 147 154 145 139 136 132 129 129 127 132 128 125 124 131 134 128 129 121 127 125 126 131 136 136 129 128 135 128
306 73 112 264 294 317 136 155 157 167 140 94 94 105 114 109 130 135 143 147 146 154 152 147 142 138 136 134 133 137 138 136 130 128 132 143 133 130 127 134 131 127 132 131 129 140 144 154 142
53 111 99 205 250 103 102 112 218 97 110 113 108 109 105 129 137 147 149 138 151 150 149 147 142 141 139 139 137 138 140 134 129 139 137 136 139 138 141 138 136 136 139 139 154 153 157 164 169
136 126 241 270 306 38 78 108 82 71 129 124 127 120 140 131 152 154 133 141 146 146 147 149 145 145 146 144 142 141 145 138 141 146 146 149 145 153 152 152 150 146 150 161 180 189 188 183 193
59 94 255 243 257 218 230 99 62 32 31 111 123 152 152 158 166 153 140 137 143 148 150 147 149 153 154 152 155 152 152 149 154 154 157 159 158 156 156 161 167 166 170 183 197 206 215 215 215
164 123 225 239 158 250 262 87 54 332 244 106 314 142 151 158 166 152 145 140 142 148 147 152 154 154 158 157 155 161 158 161 161 167 170 163 169 173 175 181 184 187 190 195 209 222 228 228 232
338 148 239 207 191 219 142 110 198 199 200 355 325 132 148 162 166 156 160 147 152 152 156 160 158 159 158 165 167 169 167 173 174 174 177 180 172 179 197 212 210 217 210 210 217 222 233 240 238
272 264 242 156 50 43 133 130 156 148 43 217 136 139 151 161 171 162 156 156 157 155 160 166 165 165 166 176 172 167 173 173 171 178 186 178 189 206 209 224 221 217 217 222 241 259 254 264 257
304 266 261 131 166 201 134 142 166 183 189 191 199 144 158 168 180 154 158 163 147 153 165 166 172 168 172 181 171 168 173 175 178 185 204 211 214 215 212 223 228 228 237 259 249 265 271 271 267
261 297 336 359 147 201 123 138 144 155 153 182 192 151 162 168 180 159 174 171 151 156 165 173 171 166 176 180 177 190 187 189 194 185 195 208 220 226 239 231 248 241 232 259 267 269 251 258 259
306 285 320 325 316 260 155 147 120 140 154 167 150 154 165 176 189 177 177 168 160 166 162 167 172 167 178 186 179 197 200 196 205 190 194 203 217 193 124 165 181 186 246 280 283 264 292 289 287
274 319 350 299 269 311 162 78 100 148 152 146 150 165 176 187 191 183 177 170 164 165 160 165 168 165 166 182 182 208 214 210 199 193 177 187 184 200 192 233 292 261 272 286 297 286 288 295 305
332 307 345 295 329 340 92 267 239 261 145 150 162 179 182 189 186 176 179 169 161 157 158 166 172 178 180 197 203 210 210 192 193 189 190 192 197 203 215 235 255 248 276 279 279 297 309 306 320
3 313 309 319 284 177 101 257 243 259 158 158 168 188 184 186 176 175 187 161 157 166 167 165 173 178 182 196 206 203 188 210 196 188 189 197 194 198 208 216 243 258 276 273 279 337 347 345 341
212 283 299 230 263 189 172 180 21 340 212 168 173 184 184 174 164 167 170 165 164 175 174 172 175 175 179 187 201 204 206 251 159 184 197 190 188 199 213 211 246 263 277 302 302 323 326 325 340
259 264 276 270 273 311 139 118 150 228 6 201 178 186 176 180 168 168 172 172 175 168 174 175 170 177 179 184 192 208 226 201 174 158 190 197 193 200 218 244 256 248 287 288 308 317 335 336 344
314 316 255 262 263 274 212 124 183 148 156 243 212 185 180 176 164 174 178 170 168 161 167 172 175 178 181 185 192 204 217 201 205 210 190 189 215 211 227 229 251 267 247 267 266 290 306 333 61
314 268 260 225 260 310 118 108 119 213 343 222 194 195 184 178 180 174 178 175 164 165 168 173 180 181 182 185 191 203 220 212 209 212 202 204 209 208 207 216 233 260 219 270 236 253 256 307 10
306 282 301 340 7 303 130 260 352 182 241 238 143 168 204 185 179 171 176 176 175 171 173 177 182 181 187 184 197 210 221 200 222 218 218 208 203 212 214 216 222 217 220 242 225 269 223 265 327
272 284 341 326 312 311 287 80 300 316 312 317 240 184 215 196 179 175 177 179 183 167 174 181 185 189 190 195 201 214 217 220 211 201 209 211 209 209 211 221 215 222 229 238 241 225 238 240 260
288 298 309 302 289 28 180 106 271 245 240 274 271 229 202 221 182 178 178 180 181 172 173 178 183 191 198 202 208 214 217 219 226 229 207 199 205 205 204 214 216 224 228 225 242 226 246 247 248
265 291 319 320 340 200 149 123 216 235 216 202 248 256 240 215 182 178 179 181 181 175 175 177 182 187 195 200 209 215 213 214 216 227 236 213 192 207 211 214 217 219 225 221 230 241 244 249 249
225 205 172 245 289 260 233 247 258 251 239 189 219 234 253 203 180 179 183 183 184 175 179 179 183 186 191 197 203 212 214 213 222 230 234 209 198 217 221 219 217 223 225 222 225 234 243 248 255
282 329 219 224 277 351 247 306 307 294 321 74 275 294 223 184 177 179 180 182 184 174 181 182 184 187 190 194 201 205 214 213 217 224 226 230 225 226 231 227 216 217 216 220 227 228 239 243 244
312 242 5 356 11 298 293 301 169 42 24 8 323 266 178 169 173 177 174 175 180 176 180 184 182 186 190 192 196 201 209 216 214 216 218 224 228 233 247 236 211 212 216 218 225 229 238 242 243
331 340 323 172 152 197 256 281 206 135 142 86 311 11 31 315 164 172 169 168 171 171 178 177 180 185 189 192 195 196 200 214 218 217 222 224 227 231 233 217 205 210 211 216 224 234 240 239 243
286 298 8 21 297 221 173 260 171 155 149 124 211 283 66 267 37 177 168 169 168 173 172 174 177 182 188 190 192 198 200 207 216 219 220 227 224 224 223 207 210 212 216 221 226 232 241 245 251